RH
8 9 12 15 15 18 53 100 100 100 100 100 69 78 100 100 100 100 100 100 100 100 100 100 100 100 100 100 100 97 80 80 58 56 77 100 100 100 100 100 100 100 100
9 10 11 14 14 17 60 100 100 100 100 100 74 76 99 100 100 100 100 100 100 100 100 100 100 100 100 100 100 100 100 100 83 60 55 76 100 100 100 100 100 100 100
11 12 12 15 15 18 67 100 100 100 100 100 98 66 96 100 100 100 100 100 100 100 100 100 100 100 100 100 100 100 100 100 100 73 58 53 78 100 100 100 100 100 100
12 12 13 15 15 19 28 100 100 100 99 100 100 77 77 100 100 100 100 100 100 100 100 100 100 100 100 100 100 100 100 96 98 76 63 57 52 75 100 100 100 86 92
12 14 14 15 16 19 24 74 100 100 100 100 100 91 69 100 100 100 100 100 100 100 100 94 100 100 100 100 100 100 100 100 98 98 82 69 60 55 94 100 100 100 100
12 14 15 15 16 19 26 85 100 100 100 100 100 88 87 84 100 100 100 100 100 100 100 100 100 100 100 100 100 100 100 100 100 100 100 86 67 62 52 60 72 80 95
12 14 15 16 16 18 25 82 100 100 100 100 100 100 59 88 100 100 100 100 100 91 100 100 100 100 100 100 100 100 100 100 100 100 100 95 74 71 66 60 50 46 57
13 15 15 16 16 17 23 58 100 100 100 100 100 89 71 80 100 100 100 100 100 100 89 100 100 100 100 100 100 100 100 100 100 100 100 100 90 73 70 68 69 62 56
14 16 16 17 16 18 21 48 100 100 100 100 100 100 79 95 100 100 95 94 100 100 100 89 100 100 89 100 100 100 100 100 100 100 98 90 79 86 73 63 64 70 73
14 16 16 18 17 18 19 35 100 100 100 100 100 100 100 100 100 100 100 92 100 84 74 68 100 100 100 100 100 100 100 100 100 100 82 97 90 74 62 61 60 61 68
12 16 16 18 18 18 19 36 75 100 100 100 100 100 100 95 92 100 100 99 76 86 96 95 88 100 100 100 100 100 100 100 100 100 100 92 83 68 68 88 89 70 62
12 16 17 18 18 17 19 31 88 100 100 100 100 100 100 100 100 100 100 100 100 100 87 100 100 84 93 100 100 100 100 100 88 89 100 100 94 77 86 84 76 66 54
10 14 17 18 18 16 18 39 100 100 100 100 100 100 100 100 100 100 100 100 100 100 100 100 100 96 75 87 90 99 100 100 89 66 85 91 95 92 77 56 52 49 49
10 10 16 17 19 17 17 19 53 100 100 100 100 100 100 100 100 100 100 100 100 100 100 100 100 100 100 56 69 84 89 98 93 75 79 91 83 68 60 57 52 46 41
8 10 12 17 17 17 16 18 22 60 100 100 100 100 100 100 100 100 100 100 100 100 100 100 100 100 89 56 50 51 58 68 62 70 79 79 74 83 71 72 62 51 38
9 9 10 12 16 17 16 17 19 32 98 100 100 100 100 94 100 100 100 100 100 100 100 100 100 100 100 100 100 80 52 40 46 58 62 54 52 54 71 69 66 38 40
15 8 8 10 13 16 16 16 16 19 90 100 100 100 100 100 100 100 100 100 100 100 100 100 100 100 100 100 100 90 77 67 51 50 39 36 35 37 42 46 35 31 32
23 16 9 7 10 12 14 15 15 15 26 97 100 100 100 100 100 100 100 100 100 100 100 100 100 100 100 100 100 100 100 88 90 99 100 80 61 49 39 42 39 38 40
24 22 16 10 7 8 12 13 13 13 15 22 76 97 100 96 100 100 100 100 100 100 100 100 100 100 100 100 100 100 100 100 99 100 81 89 96 94 84 82 72 61 52
21 21 21 16 11 7 6 10 12 12 12 14 16 45 90 100 94 100 100 100 100 100 100 100 100 100 100 100 100 100 100 100 100 96 100 100 100 97 92 98 85 76 89
20 18 18 19 17 12 8 6 6 11 11 11 13 16 25 68 99 97 100 98 100 100 100 100 100 100 100 100 100 100 100 100 100 100 100 95 91 93 99 95 100 93 86
18 18 17 18 17 16 12 8 6 5 6 10 10 12 14 15 44 97 89 100 100 100 100 100 100 100 100 100 100 100 100 100 100 100 100 100 100 100 100 100 98 100 100
16 16 16 16 15 14 13 12 9 6 5 4 6 10 10 13 14 44 84 99 100 100 100 100 100 100 100 100 100 100 100 100 100 100 100 100 100 100 100 100 100 100 100
15 14 14 14 13 12 11 10 10 9 7 5 4 4 6 9 11 12 18 59 74 99 89 100 100 100 100 100 100 100 100 100 100 100 100 100 100 100 100 100 100 100 100
17 16 14 12 11 10 8 7 6 6 6 5 5 5 4 4 5 9 11 13 19 34 73 99 100 100 100 100 100 100 100 100 100 100 100 100 100 100 100 100 100 100 100
16 14 12 10 7 6 5 5 5 5 5 5 4 4 5 4 4 4 5 7 11 14 18 32 55 92 100 100 100 100 100 100 100 100 100 100 100 100 100 100 100 100 100
Wind_Speed
102 104 103 106 105 113 133 132 114 111 96 91 97 86 83 80 72 72 65 62 57 65 65 66 62 59 55 53 51 52 50 48 47 49 50 48 44 45 48 47 47 47 45
103 107 105 106 105 113 133 137 121 109 101 98 94 88 86 81 75 74 72 65 61 62 66 68 66 64 59 56 54 53 56 53 49 46 50 54 53 44 42 47 48 48 47
103 108 106 106 106 114 135 132 119 114 106 99 90 87 88 84 80 75 72 73 71 67 67 69 68 67 66 63 57 56 58 58 52 48 48 51 57 54 48 45 46 48 48
106 108 107 106 109 116 131 138 127 116 108 104 100 91 94 90 88 82 82 75 78 74 68 67 68 67 68 65 61 62 60 59 55 52 49 49 52 58 61 60 55 52 50
106 109 109 108 111 117 129 138 131 122 110 111 107 100 96 92 87 87 83 83 77 76 73 73 68 68 69 66 65 64 64 62 58 54 54 50 49 53 60 62 60 54 53
106 109 111 110 113 116 125 137 132 114 117 111 109 106 103 100 88 86 87 84 85 80 79 73 68 68 69 67 65 63 63 60 60 58 56 55 52 52 57 61 60 58 63
104 109 111 111 115 117 124 138 131 120 118 114 113 116 102 98 91 89 90 84 82 78 74 75 76 72 71 68 67 65 63 62 62 63 59 59 59 58 56 56 56 57 61
103 108 112 112 116 117 122 136 139 128 122 118 120 116 113 110 101 95 93 91 88 83 83 76 76 77 75 73 73 66 64 61 62 62 62 64 65 62 59 59 56 51 52
100 108 112 113 116 118 121 136 145 129 133 125 121 122 120 122 114 106 102 95 95 89 87 80 78 77 82 78 76 68 68 67 65 67 66 67 68 67 65 59 55 54 52
95 106 112 115 117 120 121 134 142 135 133 127 122 118 121 120 113 109 105 104 102 96 90 86 82 83 84 84 82 72 74 71 71 72 68 70 71 71 67 63 59 55 53
85 104 111 115 119 121 120 133 144 140 138 125 124 122 124 123 122 108 111 110 104 103 100 94 90 85 85 86 85 82 79 79 76 75 72 73 71 71 67 62 59 58 57
82 102 111 115 120 124 122 131 143 140 141 132 126 122 122 119 113 112 113 112 110 107 103 102 101 100 97 94 94 89 88 87 84 80 75 76 75 73 69 68 68 68 67
77 97 111 116 122 127 125 132 143 144 140 139 131 129 126 121 122 121 120 119 111 113 110 111 105 104 106 102 98 95 93 93 89 84 80 79 78 80 81 78 74 71 68
69 89 108 118 124 127 130 130 144 150 146 144 139 140 134 125 122 123 121 122 118 115 114 113 112 109 108 108 104 101 99 95 91 88 84 82 82 83 79 77 75 73 74
61 81 100 116 123 128 131 133 138 153 155 154 145 140 139 139 129 123 129 128 125 118 119 116 115 113 115 114 114 112 108 104 99 96 91 88 87 87 85 84 81 81 81
52 68 91 108 121 128 132 136 138 148 155 156 154 149 145 145 136 130 124 130 132 124 119 122 120 120 121 119 116 116 114 111 108 104 98 95 94 93 92 90 87 85 84
46 60 76 98 113 124 131 136 140 146 159 163 158 155 152 146 145 142 140 136 131 134 133 126 122 122 123 121 122 121 117 111 112 112 109 105 99 97 94 95 91 92 90
43 52 66 82 103 119 130 135 142 146 154 169 166 164 162 154 154 151 145 142 138 134 132 129 129 127 128 128 126 123 123 118 113 108 105 106 104 103 104 102 100 98 97
44 48 59 71 85 103 122 133 139 147 151 158 173 170 169 169 155 152 150 152 145 143 141 140 139 133 131 130 129 129 130 127 122 118 115 114 111 109 106 105 103 101 99
47 50 53 63 75 88 103 125 139 145 151 157 159 175 176 175 172 166 166 157 153 151 146 144 148 144 141 138 136 134 135 132 130 128 123 120 120 120 117 114 112 107 108
47 50 55 57 64 79 91 104 123 141 150 154 158 163 174 183 176 179 167 169 165 157 153 151 152 145 146 144 140 141 140 141 140 138 136 134 132 129 129 126 122 120 117
49 51 54 58 62 68 81 93 103 115 136 150 157 161 166 174 181 180 179 181 172 165 164 161 155 153 151 148 149 147 144 144 144 143 141 138 134 131 126 128 127 127 124
51 52 56 59 62 66 71 79 91 101 110 122 141 157 163 169 175 184 185 182 178 175 176 168 163 162 159 159 158 157 157 153 149 146 141 139 140 139 138 137 133 132 130
53 55 57 60 61 62 67 73 81 89 98 106 115 127 148 162 170 176 181 190 191 186 186 181 174 172 166 164 164 163 161 157 153 151 153 146 147 147 145 144 139 140 136
56 58 58 59 60 61 64 67 72 78 86 93 103 110 120 131 152 170 175 178 185 189 192 187 186 185 180 178 175 166 171 168 164 160 160 155 143 148 148 147 147 142 140
60 59 58 57 57 57 59 62 67 72 79 86 92 100 107 115 124 135 151 170 177 181 184 185 189 190 189 188 184 187 182 172 169 166 165 160 160 161 159 154 153 155 153
Wind_Direction
190 190 190 192 192 192 193 189 193 197 198 197 204 197 204 206 211 217 217 218 223 227 225 225 227 230 231 235 238 242 244 246 247 244 239 241 246 247 248 250 253 255 257
189 189 189 191 191 193 193 191 194 199 199 202 196 197 202 206 208 215 216 218 217 227 228 228 227 230 232 233 237 241 243 248 249 250 244 240 243 246 248 249 254 257 259
190 190 189 191 191 193 193 190 193 200 202 204 201 200 200 206 208 215 215 220 220 220 228 227 228 230 232 235 235 239 243 246 247 252 249 245 241 241 247 251 254 260 263
191 190 190 191 191 194 193 193 194 199 204 206 206 202 201 208 208 209 213 217 221 222 221 228 229 232 234 235 236 238 241 243 247 255 252 250 247 243 246 250 252 257 259
190 190 191 191 191 195 193 195 196 198 201 204 207 204 207 208 208 213 215 218 219 219 222 226 228 230 233 235 237 238 240 243 248 250 249 250 250 248 245 246 247 250 253
191 191 192 191 191 195 195 196 195 195 200 204 206 206 208 211 209 212 214 217 221 223 227 227 227 230 233 233 237 239 240 243 243 246 249 249 250 249 251 250 250 251 252
192 192 193 191 192 196 197 197 192 195 199 204 208 207 206 207 212 210 211 214 218 223 224 227 228 230 232 232 233 236 240 240 243 245 245 248 248 248 252 257 257 252 255
192 194 194 193 194 197 198 199 196 198 200 207 211 211 206 212 216 213 212 214 217 221 227 226 229 231 232 232 234 235 237 237 240 242 243 245 247 251 252 255 257 259 261
194 196 197 195 197 199 200 200 199 199 206 210 212 212 213 216 218 216 214 214 216 219 222 226 229 231 236 232 233 233 237 239 238 242 243 245 248 250 251 255 257 256 257
196 199 200 199 200 201 202 202 201 202 203 208 209 208 212 215 217 218 217 216 217 220 225 228 228 230 234 232 231 233 236 240 242 242 246 245 246 249 252 254 257 256 257
200 203 203 201 203 203 204 203 202 202 204 206 209 211 213 216 218 221 219 221 222 223 225 226 228 228 231 232 231 233 235 235 239 242 244 246 247 250 253 252 252 255 256
203 206 205 204 205 205 205 206 203 203 206 208 209 212 214 215 217 220 224 224 224 225 225 225 230 232 231 234 233 234 236 239 240 240 243 247 248 248 249 249 249 253 256
207 208 208 207 208 207 209 206 201 204 205 210 209 213 216 217 220 220 223 226 226 226 226 228 228 230 232 233 234 234 235 238 240 242 242 244 247 250 250 253 254 256 259
209 211 211 210 210 211 211 211 209 208 209 209 214 216 218 219 218 219 223 225 226 227 228 226 228 228 232 234 235 236 237 240 242 242 240 242 246 250 253 256 257 259 261
216 212 213 214 213 213 214 214 215 213 211 213 213 216 217 217 220 221 224 226 226 227 228 228 230 233 235 237 237 237 239 241 243 242 242 245 246 249 252 253 257 260 263
226 221 216 216 216 216 216 216 218 215 215 213 214 216 217 219 220 221 224 224 227 227 228 232 235 236 237 240 241 241 244 243 243 242 242 244 247 249 250 253 257 262 262
234 227 225 220 219 219 219 219 218 219 216 214 215 216 218 221 222 224 225 228 228 229 230 232 233 236 239 240 241 244 244 243 244 244 246 249 247 248 250 253 254 260 262
239 234 229 226 224 224 222 221 221 220 220 218 218 219 219 219 224 224 226 227 228 230 231 233 234 236 238 239 244 245 244 243 242 245 246 248 247 250 250 251 255 258 259
241 239 235 232 229 227 227 224 224 222 223 223 222 223 221 222 221 223 225 228 227 230 232 235 236 236 238 241 242 244 244 246 246 247 247 248 251 252 252 252 254 257 258
245 241 238 236 235 233 230 229 228 226 225 226 225 226 226 224 225 225 227 227 229 231 234 235 237 238 239 240 241 243 247 248 248 249 249 252 254 254 254 254 256 257 261
248 246 243 241 239 236 235 233 231 231 229 228 227 227 228 228 227 228 228 230 230 231 233 234 236 237 239 240 243 244 245 248 251 252 252 254 255 255 255 255 255 256 259
255 253 248 246 245 241 237 237 236 234 233 232 231 230 230 229 230 229 231 229 232 232 232 233 235 235 239 240 241 242 244 247 249 252 254 254 255 256 255 256 258 260 262
261 259 257 253 250 247 243 239 237 238 236 235 235 233 232 231 230 231 231 231 233 233 233 233 234 237 237 239 242 243 245 247 248 251 251 253 256 257 259 260 261 262 263
267 266 263 260 256 252 247 244 241 239 238 238 236 236 235 235 232 232 233 233 233 234 235 235 236 236 237 238 241 241 245 244 246 248 251 252 254 257 259 261 262 263 264
274 271 268 265 262 258 253 249 245 242 240 239 238 237 236 236 236 234 234 235 235 236 235 236 236 237 238 239 241 242 244 245 246 248 250 252 253 254 255 257 260 259 260
279 277 273 269 266 261 256 252 248 244 241 241 239 238 236 236 236 236 237 237 236 235 236 237 239 239 240 240 241 243 243 244 246 246 247 248 249 251 255 256 257 259 260